カタログに戻る

COSMOS 422

運用中軍事LEO
NORAD 5238·PAYLOAD·🇷🇺 Russia

打ち上げ May 22, 1971 から Plesetsk Cosmodrome

Loading…

次のパス (今後24時間)

TLE

最新Source: Space-Track

元期: Sep 14, 2026, 08:07 UTC

1 05238U 71046A   26257.33828567  .00000000  00000-0  24328-4 0  9993
2 05238  74.0211  26.2180 0015155 339.0632  49.7858 13.72299513769710

AllMySatでCOSMOS 422をリアルタイム追跡

Download on the App Store